When you browse on this site, cookies collect data to enhance your experience and personalize the content and advertising you see.
Visit our Privacy Policy to learn more. By continuing to use the site, you agree to this use of cookies and data.
  • In Lithuania
  • List of Countries
  • For 7 days
  • Water Temperature
  • Satellite Maps
  • Weather Map
  • Weather Widgets
  • user-avatar
    Login

    Hourly Weather Tirana

    Today, 20 April, Saturday

    Time Temperature Precipitation Wind Pressure Humidity
    00:00 +12°C° 0 mm 2 mps 760 mmHg 80%
    01:00 +12°C° 0 mm 1 mps 760 mmHg 77%
    02:00 +12°C° 0 mm 1 mps 759 mmHg 75%
    03:00 +11°C° 0 mm 1 mps 759 mmHg 73%
    04:00 +11°C° 0 mm 1 mps 759 mmHg 72%
    05:00 +13°C° 0 mm 1 mps 759 mmHg 68%
    06:00 +14°C° 0 mm 1 mps 759 mmHg 64%
    07:00 +15°C° 0 mm 1 mps 759 mmHg 59%
    08:00 +17°C° 0 mm 2 mps 759 mmHg 52%
    09:00 +19°C° 0 mm 2 mps 759 mmHg 45%
    10:00 +21°C° 0 mm 3 mps 759 mmHg 38%
    11:00 +21°C° 0 mm 4 mps 759 mmHg 36%
    12:00 +22°C° 0 mm 5 mps 758 mmHg 35%
    13:00 +23°C° 0 mm 5 mps 758 mmHg 33%
    14:00 +22°C° 0 mm 6 mps 758 mmHg 37%
    15:00 +21°C° 0 mm 6 mps 758 mmHg 41%
    16:00 +21°C° 0 mm 6 mps 758 mmHg 44%
    17:00 +19°C° 0 mm 5 mps 758 mmHg 52%
    18:00 +16°C° 0 mm 5 mps 758 mmHg 61%
    19:00 +14°C° 0 mm 4 mps 758 mmHg 69%
    20:00 +14°C° 0 mm 4 mps 759 mmHg 66%
    21:00 +14°C° 0 mm 3 mps 759 mmHg 64%
    22:00 +13°C° 0 mm 3 mps 760 mmHg 62%
    23:00 +13°C° 0 mm 3 mps 760 mmHg 62%

    Tomorrow, 21 April, Sunday

    Time Temperature Precipitation Wind Pressure Humidity
    00:00 +12°C° 0 mm 3 mps 760 mmHg 62%
    01:00 +12°C° 0 mm 3 mps 760 mmHg 62%
    02:00 +12°C° 0 mm 3 mps 760 mmHg 62%
    03:00 +11°C° 0 mm 3 mps 760 mmHg 62%
    04:00 +11°C° 0 mm 3 mps 759 mmHg 62%
    05:00 +13°C° 0 mm 2 mps 759 mmHg 60%
    06:00 +14°C° 0 mm 2 mps 760 mmHg 58%
    07:00 +15°C° 0 mm 2 mps 760 mmHg 56%
    08:00 +17°C° 0 mm 2 mps 759 mmHg 54%
    09:00 +18°C° 0 mm 2 mps 759 mmHg 52%
    10:00 +19°C° 0 mm 2 mps 759 mmHg 50%
    11:00 +20°C° 0 mm 3 mps 759 mmHg 50%
    12:00 +20°C° 0 mm 3 mps 759 mmHg 51%
    13:00 +21°C° 0 mm 4 mps 758 mmHg 51%
    14:00 +20°C° 0.2 mm 5 mps 758 mmHg 57%
    15:00 +19°C° 0.2 mm 5 mps 758 mmHg 63%
    16:00 +19°C° 0.2 mm 6 mps 757 mmHg 70%
    17:00 +16°C° 0.1 mm 5 mps 757 mmHg 77%
    18:00 +15°C° 0.1 mm 4 mps 757 mmHg 84%
    19:00 +13°C° 0.1 mm 4 mps 757 mmHg 91%
    20:00 +13°C° 0 mm 4 mps 758 mmHg 91%
    21:00 +12°C° 0 mm 3 mps 758 mmHg 92%
    22:00 +12°C° 0 mm 3 mps 758 mmHg 92%
    23:00 +12°C° 0 mm 3 mps 758 mmHg 92%

    Day after tomorrow, 22 April, Monday

    Time Temperature Precipitation Wind Pressure Humidity
    00:00 +13°C° 0 mm 2 mps 757 mmHg 91%
    01:00 +13°C° 0 mm 2 mps 757 mmHg 90%
    02:00 +12°C° 0 mm 2 mps 757 mmHg 90%
    03:00 +12°C° 0 mm 2 mps 757 mmHg 90%
    04:00 +12°C° 0 mm 2 mps 757 mmHg 89%
    05:00 +13°C° 0 mm 2 mps 756 mmHg 84%
    06:00 +14°C° 0 mm 2 mps 756 mmHg 78%
    07:00 +14°C° 0 mm 3 mps 756 mmHg 73%
    08:00 +17°C° 0 mm 2 mps 756 mmHg 66%
    09:00 +18°C° 0 mm 2 mps 756 mmHg 59%
    10:00 +20°C° 0 mm 2 mps 755 mmHg 53%
    11:00 +20°C° 0 mm 2 mps 755 mmHg 52%
    12:00 +21°C° 0 mm 2 mps 755 mmHg 50%
    13:00 +23°C° 0 mm 2 mps 754 mmHg 49%
    14:00 +21°C° 0 mm 3 mps 754 mmHg 53%
    15:00 +21°C° 0 mm 4 mps 753 mmHg 57%
    16:00 +20°C° 0 mm 4 mps 753 mmHg 61%
    17:00 +19°C° 0.4 mm 5 mps 753 mmHg 69%
    18:00 +16°C° 0.4 mm 6 mps 753 mmHg 77%
    19:00 +15°C° 0.4 mm 7 mps 753 mmHg 85%
    20:00 +15°C° 0.7 mm 6 mps 753 mmHg 86%
    21:00 +15°C° 0.7 mm 5 mps 753 mmHg 87%
    22:00 +14°C° 0.7 mm 4 mps 753 mmHg 88%
    23:00 +14°C° 0 mm 3 mps 753 mmHg 87%

    23 April, Tuesday

    Time Temperature Precipitation Wind Pressure Humidity
    00:00 +15°C° 0 mm 2 mps 753 mmHg 85%
    01:00 +15°C° 0 mm 1 mps 752 mmHg 84%
    02:00 +15°C° 0.3 mm 2 mps 752 mmHg 83%
    03:00 +15°C° 0.3 mm 2 mps 752 mmHg 82%
    04:00 +13°C° 0.3 mm 3 mps 752 mmHg 82%
    05:00 +14°C° 0 mm 3 mps 752 mmHg 78%
    06:00 +16°C° 0 mm 3 mps 752 mmHg 74%
    07:00 +17°C° 0 mm 2 mps 752 mmHg 70%
    08:00 +19°C° 0 mm 3 mps 752 mmHg 60%
    09:00 +22°C° 0 mm 4 mps 752 mmHg 51%
    10:00 +25°C° 0 mm 5 mps 752 mmHg 41%
    11:00 +24°C° 0 mm 7 mps 752 mmHg 41%
    12:00 +26°C° 0 mm 8 mps 752 mmHg 40%
    13:00 +26°C° 0 mm 10 mps 752 mmHg 40%
    14:00 +26°C° 0 mm 10 mps 752 mmHg 42%
    15:00 +24°C° 0 mm 9 mps 752 mmHg 44%
    16:00 +24°C° 0 mm 9 mps 752 mmHg 46%
    17:00 +22°C° 0 mm 8 mps 753 mmHg 53%
    18:00 +20°C° 0 mm 7 mps 753 mmHg 60%
    19:00 +17°C° 0 mm 6 mps 754 mmHg 67%
    20:00 +17°C° 0 mm 5 mps 754 mmHg 67%
    21:00 +17°C° 0 mm 4 mps 755 mmHg 66%
    22:00 +17°C° 0 mm 2 mps 755 mmHg 66%
    23:00 +17°C° 0 mm 2 mps 755 mmHg 68%

    24 April, Wednesday

    Time Temperature Precipitation Wind Pressure Humidity
    00:00 +16°C° 0 mm 2 mps 755 mmHg 69%
    01:00 +16°C° 0 mm 2 mps 755 mmHg 71%
    02:00 +16°C° 0 mm 2 mps 755 mmHg 71%
    03:00 +16°C° 0 mm 3 mps 755 mmHg 72%
    04:00 +14°C° 0 mm 3 mps 755 mmHg 73%
    05:00 +17°C° 0 mm 3 mps 755 mmHg 70%
    06:00 +18°C° 0 mm 3 mps 756 mmHg 67%
    07:00 +19°C° 0 mm 3 mps 756 mmHg 64%
    08:00 +21°C° 0 mm 3 mps 756 mmHg 56%
    09:00 +25°C° 0 mm 3 mps 756 mmHg 49%
    10:00 +27°C° 0 mm 2 mps 756 mmHg 41%
    11:00 +27°C° 0 mm 2 mps 756 mmHg 40%
    12:00 +28°C° 0 mm 2 mps 755 mmHg 39%
    13:00 +28°C° 0 mm 1 mps 755 mmHg 37%
    14:00 +28°C° 0 mm 2 mps 755 mmHg 38%
    15:00 +28°C° 0 mm 2 mps 755 mmHg 39%
    16:00 +28°C° 0 mm 3 mps 755 mmHg 40%
    17:00 +26°C° 0 mm 3 mps 755 mmHg 46%
    18:00 +23°C° 0 mm 2 mps 755 mmHg 53%
    19:00 +20°C° 0 mm 2 mps 755 mmHg 60%
    20:00 +19°C° 0 mm 2 mps 756 mmHg 63%
    21:00 +19°C° 0 mm 2 mps 756 mmHg 66%
    22:00 +18°C° 0 mm 2 mps 756 mmHg 69%
    23:00 +19°C° 0 mm 1 mps 756 mmHg 71%

    25 April, Thursday

    Time Temperature Precipitation Wind Pressure Humidity
    00:00 +18°C° 0 mm 1 mps 756 mmHg 73%
    01:00 +18°C° 0 mm 1 mps 756 mmHg 74%
    02:00 +18°C° 0 mm 1 mps 756 mmHg 76%
    03:00 +18°C° 0 mm 1 mps 756 mmHg 77%
    04:00 +18°C° 0 mm 1 mps 756 mmHg 79%
    05:00 +19°C° 0 mm 1 mps 756 mmHg 75%
    06:00 +20°C° 0 mm 1 mps 756 mmHg 72%
    07:00 +21°C° 0 mm 1 mps 756 mmHg 68%
    08:00 +23°C° 0 mm 1 mps 756 mmHg 59%
    09:00 +25°C° 0 mm 1 mps 756 mmHg 50%
    10:00 +25°C° 0 mm 0 mps 756 mmHg 41%
    11:00 +28°C° 0 mm 1 mps 756 mmHg 40%
    12:00 +29°C° 0 mm 2 mps 756 mmHg 39%
    13:00 +29°C° 0 mm 3 mps 755 mmHg 38%
    14:00 +28°C° 0 mm 3 mps 755 mmHg 45%
    15:00 +26°C° 0 mm 2 mps 754 mmHg 51%
    16:00 +24°C° 0 mm 2 mps 754 mmHg 57%
    17:00 +23°C° 0 mm 2 mps 754 mmHg 61%
    18:00 +21°C° 0 mm 2 mps 754 mmHg 66%
    19:00 +20°C° 0 mm 2 mps 754 mmHg 70%
    20:00 +20°C° 0 mm 2 mps 754 mmHg 69%
    21:00 +20°C° 0 mm 2 mps 754 mmHg 69%
    22:00 +20°C° 0 mm 2 mps 755 mmHg 68%
    23:00 +21°C° 0 mm 1 mps 754 mmHg 70%
    Show more